Location: London
(42.9830°N, 81.2500°W)
Time: 16:49:11
(UTC-05:00)

Amateur Radio Satellites - All Passes

Search period start: 12 December 2017 16:19
Search period end: 13 December 2017 16:19
Location: London, 42.9830°N, 81.2500°W

Satellite Date Start Highest point End Downlink Frequencies (MHz)
Time Altitude Azimuth
SO-50 12 Dec 16:20:54 16:25:19 66° 121° (ESE) 16:29:48 436.795
ITAMSAT 1 12 Dec 16:20:58 16:25:17 26° 265° (W) 16:29:37 435.822/435.867
RS-15 12 Dec 16:21:26 16:33:45 72° 308° (NW) 16:45:59 29.354- 29.394
LilacSat-2 12 Dec 16:37:18 16:39:47 17° 66° (ENE) 16:42:17 437.200
YUBILEINY 12 Dec 16:42:54 16:49:10 22° 282° (WNW) 16:55:25 435.215
AO-7 12 Dec 16:45:32 16:51:20 21° 269° (W) 16:57:13 .
DOVE 4 12 Dec 16:49:01 16:54:17 66° 259° (W) 16:59:27 437.250
XW-2D 12 Dec 16:54:21 16:57:26 24° 69° (ENE) 17:00:33 145.860 - 145.880
nSIGHT-1 12 Dec 16:58:22 17:00:58 22° 14° (NNE) 17:03:33 .
KAITUO 1B 12 Dec 17:09:00 17:12:05 25° 69° (ENE) 17:15:12 145.475/437.950
XW-2B 12 Dec 17:09:42 17:13:09 35° 71° (ENE) 17:16:38 145.730 - 145.750
NUDT-PHONESAT 12 Dec 17:09:48 17:12:47 24° 69° (ENE) 17:15:47 437.300
CUBESAT XI-V 12 Dec 17:10:06 17:14:42 54° 287° (WNW) 17:19:17 437.345
STARS 12 Dec 17:16:07 17:18:14 13° 91° (E) 17:20:21 437.465
CUTE 1.7 + AOD 2 12 Dec 17:17:06 17:19:02 13° 62° (ENE) 17:20:58 437.475
O/OREOS (USA 219) 12 Dec 17:20:19 17:21:54 12° 48° (NE) 17:23:27 437.305
XW-2F 12 Dec 17:23:46 17:27:23 48° 74° (ENE) 17:31:04 145.980 - 146.000
CUTE-I 12 Dec 17:27:59 17:33:13 55° 71° (ENE) 17:38:27 437.470
BEESAT 12 Dec 17:31:07 17:33:54 16° 299° (WNW) 17:36:40 436.000
ISS 12 Dec 17:31:17 17:34:07 26° 18° (NNE) 17:36:58 437.550
XW-2C 12 Dec 17:36:33 17:40:19 78° 75° (ENE) 17:44:09 145.795 - 145.815
CUBEBUG 2 12 Dec 17:39:50 17:41:50 13° 63° (ENE) 17:43:49 437.445
HO-68 12 Dec 17:58:10 18:05:06 55° 67° (ENE) 18:12:05 435.675
KKS-1 12 Dec 18:00:43 18:05:10 80° 284° (WNW) 18:09:34 437.445
SO-50 12 Dec 18:02:57 18:06:12 19° 320° (NW) 18:09:30 436.795
PCSat 12 Dec 18:07:20 18:09:54 14° 103° (ESE) 18:12:27 145.827
LilacSat-2 12 Dec 18:10:14 18:13:45 36° 263° (W) 18:17:20 437.200
XW-2A 12 Dec 18:23:08 18:24:47 13° 66° (ENE) 18:26:27 145.665 - 145.685
XW-2D 12 Dec 18:28:26 18:31:31 24° 265° (W) 18:34:39 145.860 - 145.880
SEEDS 12 Dec 18:31:58 18:36:01 47° 73° (ENE) 18:40:07 437.485
nSIGHT-1 12 Dec 18:34:19 18:37:33 80° 30° (NNE) 18:40:46 .
RS-15 12 Dec 18:38:20 18:48:51 31° 337° (NNW) 18:59:10 29.354- 29.394
Oscar 11 12 Dec 18:40:03 18:41:02 11° 60° (ENE) 18:42:01 .
KAITUO 1B 12 Dec 18:43:01 18:46:00 23° 265° (W) 18:49:01 145.475/437.950
NUDT-PHONESAT 12 Dec 18:43:34 18:46:32 23° 265° (W) 18:49:32 437.300
XW-2B 12 Dec 18:44:58 18:47:26 17° 268° (W) 18:49:55 145.730 - 145.750
AO-73 12 Dec 18:49:28 18:52:22 19° 66° (ENE) 18:55:17 145.935
CUTE 1.7 + AOD 2 12 Dec 18:50:06 18:54:18 65° 259° (W) 18:58:34 437.475
STARS 12 Dec 18:50:39 18:54:56 58° 287° (WNW) 18:59:13 437.465
O/OREOS (USA 219) 12 Dec 18:57:30 19:02:02 88° 67° (ENE) 19:06:30 437.305
AAUSAT CUBESAT 2 12 Dec 18:58:20 19:02:13 40° 71° (ENE) 19:06:08 437.432
XW-2F 12 Dec 19:00:19 19:01:47 12° 270° (W) 19:03:14 145.980 - 146.000
ISS 12 Dec 19:07:34 19:10:50 67° 216° (SW) 19:14:05 437.550
CUTE-I 12 Dec 19:09:41 19:13:35 20° 268° (W) 19:17:30 437.470
CUBEBUG 2 12 Dec 19:13:48 19:17:59 59° 259° (W) 19:22:07 437.445
UWE-3 12 Dec 19:18:21 19:22:32 85° 72° (ENE) 19:26:41 435.000/436.395/437.385
HO-68 12 Dec 19:46:57 19:53:07 30° 265° (W) 19:59:20 435.675
PCSat 12 Dec 19:47:05 19:52:31 85° 300° (WNW) 19:57:58 145.827
ZACube-1 12 Dec 19:48:42 19:52:49 85° 258° (WSW) 19:56:59 437.345
STRAND 1 12 Dec 19:50:19 19:55:23 64° 102° (ESE) 20:00:26 437.568
XW-2A 12 Dec 19:54:04 19:57:09 35° 262° (W) 20:00:17 145.665 - 145.685
SEEDS 12 Dec 20:09:27 20:11:57 15° 269° (W) 20:14:29 437.485
nSIGHT-1 12 Dec 20:11:50 20:13:20 13° 229° (SW) 20:14:49 .
Oscar 11 12 Dec 20:12:11 20:16:29 82° 256° (WSW) 20:20:51 .
DELFI C3 12 Dec 20:22:27 20:25:44 25° 68° (ENE) 20:29:01 145.870
AO-73 12 Dec 20:24:30 20:28:20 37° 262° (W) 20:32:13 145.935
FO-29 12 Dec 20:28:04 20:34:52 48° 97° (E) 20:40:51 435.910
AAUSAT CUBESAT 2 12 Dec 20:34:58 20:37:49 18° 268° (W) 20:40:42 437.432
BEESAT 3 12 Dec 20:42:49 20:46:37 44° 118° (ESE) 20:50:27 437.485
RS-15 12 Dec 20:56:43 21:06:30 27° 12° (NNE) 21:15:55 29.354- 29.394
Max Valier Satellite 12 Dec 21:00:37 21:04:04 43° 73° (ENE) 21:07:35 145.860
BEESAT 2 12 Dec 21:17:35 21:21:03 29° 115° (ESE) 21:24:35 435.950
STRAND 1 12 Dec 21:30:44 21:34:03 18° 299° (WNW) 21:37:20 437.568
PCSat 12 Dec 21:33:13 21:36:44 17° 321° (NW) 21:40:16 145.827
EO-88 12 Dec 21:33:47 21:37:24 80° 75° (ENE) 21:41:04 145.990 - 145.960
AO-85 12 Dec 21:37:17 21:38:32 11° 108° (ESE) 21:39:47 145.980
DELFI C3 12 Dec 21:57:00 22:00:23 26° 265° (W) 22:03:46 145.870
ESTCUBE 1 12 Dec 21:59:38 22:02:53 20° 64° (ENE) 22:06:09 437.505/2401.250
PRISM 12 Dec 22:06:10 22:08:49 16° 93° (E) 22:11:25 437.425
LO-87 12 Dec 22:12:07 22:15:08 26° 70° (ENE) 22:18:09 145.935 - 145.965
FO-29 12 Dec 22:13:25 22:19:36 33° 298° (WNW) 22:25:11 435.910
TIGRISAT 12 Dec 22:18:08 22:22:28 75° 103° (ESE) 22:26:52 435.000
UNISAT 6 12 Dec 22:20:48 22:25:09 88° 109° (ESE) 22:29:33 437.425
BEESAT 3 12 Dec 22:21:16 22:24:20 21° 316° (NW) 22:27:26 437.485
Max Valier Satellite 12 Dec 22:36:34 22:38:08 12° 269° (W) 22:39:41 145.860
AIST 2D 12 Dec 22:50:53 22:53:21 18° 93° (E) 22:55:49 435.315
BEESAT 2 12 Dec 22:55:11 22:58:43 29° 313° (NW) 23:02:19 435.950
SPROUT 12 Dec 23:04:07 23:07:21 21° 66° (ENE) 23:10:34 437.525
RS-15 12 Dec 23:10:53 23:22:33 54° 44° (NE) 23:33:32 29.354- 29.394
SO-50 12 Dec 23:11:54 23:14:29 14° 35° (NE) 23:17:03 436.795
AO-85 12 Dec 23:14:22 23:18:16 65° 307° (NW) 23:22:23 145.980
EO-79 12 Dec 23:26:24 23:29:01 16° 92° (E) 23:31:39 145.935-145.965
ESTCUBE 1 12 Dec 23:35:03 23:39:21 44° 261° (W) 23:43:43 437.505/2401.250
PRISM 12 Dec 23:40:22 23:44:16 41° 289° (WNW) 23:48:06 437.425
VELOX 1 12 Dec 23:41:52 23:45:52 34° 69° (ENE) 23:49:54 145.980
LO-87 12 Dec 23:45:59 23:48:32 18° 266° (W) 23:51:05 145.935 - 145.965
POLYITAN 1 12 Dec 23:48:00 23:51:37 27° 96° (E) 23:55:13 437.675
TIGRISAT 12 Dec 23:57:05 23:58:34 12° 299° (WNW) 00:00:04 435.000
QB50P2 13 Dec 00:13:07 00:17:17 59° 100° (E) 00:21:28 145.880/145.840
FALCONSAT 3 13 Dec 00:18:16 00:21:04 21° 169° (SSE) 00:23:53 435.103
DUCHIFAT 1 13 Dec 00:21:47 00:25:52 49° 100° (E) 00:29:56 145.980
AIST 2D 13 Dec 00:23:27 00:26:32 28° 289° (WNW) 00:29:36 435.315
UKube-1 13 Dec 00:34:22 00:37:15 18° 64° (ENE) 00:40:08 .
SPROUT 13 Dec 00:39:06 00:43:00 35° 263° (W) 00:46:56 437.525
DX 1 13 Dec 00:44:18 00:48:16 34° 69° (ENE) 00:52:14 434.975-435.025
NANOSAT C BR1 13 Dec 00:46:56 00:51:08 74° 285° (WNW) 00:55:19 145.865
SO-50 13 Dec 00:51:02 00:55:43 75° 56° (NE) 01:00:26 436.795
AO-85 13 Dec 00:58:28 00:59:35 11° 328° (NNW) 01:00:43 145.980
EO-79 13 Dec 01:00:58 01:05:00 45° 288° (WNW) 01:09:01 145.935-145.965
AO-91 13 Dec 01:10:09 01:12:20 16° 92° (E) 01:14:28 145.960
BUGSAT 1 13 Dec 01:10:46 01:14:34 39° 99° (E) 01:18:23 437.445
VELOX 1 13 Dec 01:18:45 01:22:21 24° 265° (W) 01:25:58 145.980
MOZHAYETS 4 13 Dec 01:21:47 01:23:44 13° 60° (ENE) 01:25:39
POLYITAN 1 13 Dec 01:23:46 01:27:19 27° 292° (WNW) 01:30:51 437.675
RS-15 13 Dec 01:23:52 01:34:58 52° 249° (WSW) 01:45:32 29.354- 29.394
BEESAT 13 Dec 01:25:39 01:26:39 11° 57° (ENE) 01:27:40 436.000
50 SAT 13 Dec 01:36:08 01:39:12 48° 260° (W) 01:42:19 437.505
Oscar 19 13 Dec 01:44:41 01:49:46 51° 100° (E) 01:54:49 437.125/150
ITUPSAT 1 13 Dec 01:50:04 01:53:16 18° 62° (ENE) 01:56:28 437.325
QB50P2 13 Dec 01:50:27 01:52:35 14° 297° (WNW) 01:54:44 145.880/145.840
YUBILEINY 13 Dec 01:53:48 01:59:14 18° 76° (ENE) 02:04:39 435.215
FALCONSAT 3 13 Dec 01:56:34 01:59:36 24° 184° (S) 02:02:38 435.103
DUCHIFAT 1 13 Dec 01:58:36 02:01:07 16° 296° (WNW) 02:03:38 145.980
UKube-1 13 Dec 02:08:44 02:12:54 46° 260° (W) 02:17:06 .
Gurwin Techsat 1B 13 Dec 02:10:09 02:15:27 64° 102° (ESE) 02:20:42 435.225
DX 1 13 Dec 02:21:02 02:24:30 23° 265° (W) 02:27:59 434.975-435.025
SO-50 13 Dec 02:33:16 02:35:35 14° 251° (WSW) 02:37:55 436.795
CUBESAT XI-V 13 Dec 02:38:12 02:41:25 19° 64° (ENE) 02:44:40 437.345
AO-91 13 Dec 02:45:53 02:48:57 27° 291° (WNW) 02:51:53 145.960
BUGSAT 1 13 Dec 02:46:56 02:49:38 18° 295° (WNW) 02:52:21 437.445
AO-7 13 Dec 02:50:45 02:57:31 26° 94° (E) 03:04:12 .
PCSat 13 Dec 02:51:42 02:55:25 18° 40° (NE) 02:59:06 145.827
ITAMSAT 1 13 Dec 02:54:35 02:56:46 13° 89° (E) 02:58:57 435.822/435.867
MOZHAYETS 4 13 Dec 02:55:42 03:00:14 76° 257° (WSW) 03:04:49
BEESAT 13 Dec 02:58:52 03:03:38 83° 74° (ENE) 03:08:24 436.000
Oscar 19 13 Dec 03:24:47 03:28:42 22° 297° (WNW) 03:32:37 437.125/150
KKS-1 13 Dec 03:26:00 03:27:41 12° 60° (ENE) 03:29:22 437.445
ITUPSAT 1 13 Dec 03:26:00 03:30:39 54° 259° (W) 03:35:20 437.325
FALCONSAT 3 13 Dec 03:35:59 03:38:03 14° 199° (SSW) 03:40:07 435.103
YUBILEINY 13 Dec 03:45:51 03:54:40 88° 99° (E) 04:03:35 435.215
Gurwin Techsat 1B 13 Dec 03:51:15 03:54:52 19° 299° (WNW) 03:58:27 435.225
M-CUBED/EXP-1 PRIME 13 Dec 04:02:47 04:07:21 67° 107° (ESE) 04:11:37 437.505
STARS 13 Dec 04:13:37 04:16:05 15° 62° (ENE) 04:18:32 437.465
CUBESAT XI-V 13 Dec 04:13:53 04:18:23 50° 261° (W) 04:22:58 437.345
ITAMSAT 1 13 Dec 04:31:38 04:36:51 80° 286° (WNW) 04:42:00 435.822/435.867
PCSat 13 Dec 04:34:06 04:39:34 89° 237° (WSW) 04:44:59 145.827
BEESAT 13 Dec 04:41:06 04:41:59 10° 272° (W) 04:42:53 436.000
AO-7 13 Dec 04:42:34 04:50:54 72° 293° (WNW) 04:59:13 .
DOVE 4 13 Dec 04:47:50 04:51:52 30° 95° (E) 04:55:41 437.250
BEESAT 3 13 Dec 04:58:28 05:02:07 35° 49° (NE) 05:05:42 437.485
KKS-1 13 Dec 04:59:08 05:03:36 79° 257° (WSW) 05:08:05 437.445
STRAND 1 13 Dec 05:31:02 05:33:36 14° 59° (ENE) 05:36:09 437.568
BEESAT 2 13 Dec 05:33:55 05:37:21 26° 46° (NE) 05:40:43 435.950
M-CUBED/EXP-1 PRIME 13 Dec 05:38:26 05:41:07 16° 304° (NW) 05:43:42 437.505
LilacSat-2 13 Dec 05:42:36 05:45:37 21° 94° (E) 05:48:35 437.200
CUTE-I 13 Dec 05:44:56 05:48:47 20° 92° (E) 05:52:37 437.470
YUBILEINY 13 Dec 05:46:23 05:52:43 21° 299° (WNW) 05:59:07 435.215
STARS 13 Dec 05:47:35 05:51:55 59° 259° (WSW) 05:56:17 437.465
XW-2D 13 Dec 05:59:09 06:02:37 31° 97° (E) 06:06:02 145.860 - 145.880
AO-85 13 Dec 06:04:01 06:07:41 22° 42° (NE) 06:11:31 145.980
NUDT-PHONESAT 13 Dec 06:11:52 06:15:09 28° 96° (E) 06:18:25 437.300
KAITUO 1B 13 Dec 06:12:14 06:15:38 30° 97° (E) 06:18:59 145.475/437.950
ITAMSAT 1 13 Dec 06:13:42 06:15:26 12° 304° (NW) 06:17:11 435.822/435.867
XW-2B 13 Dec 06:14:46 06:18:30 45° 99° (E) 06:22:11 145.730 - 145.750
PCSat 13 Dec 06:20:02 06:22:06 12° 258° (WSW) 06:24:10 145.827
DOVE 4 13 Dec 06:25:39 06:29:26 26° 294° (WNW) 06:33:03 437.250
XW-2F 13 Dec 06:28:26 06:32:15 64° 101° (E) 06:36:03 145.980 - 146.000
CUTE 1.7 + AOD 2 13 Dec 06:34:35 06:37:49 20° 93° (E) 06:41:01 437.475
BEESAT 3 13 Dec 06:36:23 06:39:26 22° 247° (WSW) 06:42:26 437.485
AO-7 13 Dec 06:37:04 06:42:16 18° 313° (NW) 06:47:27 .
FO-29 13 Dec 06:39:57 06:46:21 29° 60° (ENE) 06:52:48 435.910
XW-2C 13 Dec 06:41:57 06:45:49 80° 285° (WNW) 06:49:40 145.795 - 145.815
NO-84 13 Dec 06:51:37 06:54:01 22° 129° (SE) 06:56:34 435.350 FM
CUBEBUG 2 13 Dec 07:03:31 07:07:02 25° 95° (E) 07:10:36 437.445
STRAND 1 13 Dec 07:06:57 07:12:05 83° 256° (WSW) 07:17:14 437.568
UWE-3 13 Dec 07:07:39 07:10:19 16° 92° (E) 07:13:00 435.000/436.395/437.385
BEESAT 2 13 Dec 07:11:27 07:15:06 33° 244° (WSW) 07:18:40 435.950
HO-68 13 Dec 07:12:12 07:19:11 52° 101° (E) 07:26:07 435.675
XW-2A 13 Dec 07:15:49 07:17:08 12° 91° (E) 07:18:27 145.665 - 145.685
LilacSat-2 13 Dec 07:16:30 07:19:52 29° 290° (WNW) 07:23:15 437.200
CUTE-I 13 Dec 07:23:57 07:29:10 55° 289° (WNW) 07:34:19 437.470
XW-2D 13 Dec 07:33:44 07:36:34 20° 293° (WNW) 07:39:24 145.860 - 145.880
ZACube-1 13 Dec 07:36:31 07:39:26 17° 92° (E) 07:42:23 437.345
AO-85 13 Dec 07:43:42 07:48:28 65° 239° (WSW) 07:53:33 145.980
NUDT-PHONESAT 13 Dec 07:45:59 07:48:49 21° 292° (WNW) 07:51:39 437.300
KAITUO 1B 13 Dec 07:46:36 07:49:24 20° 293° (WNW) 07:52:10 145.475/437.950
SEEDS 13 Dec 07:49:58 07:54:15 84° 100° (E) 07:58:29 437.485
XW-2B 13 Dec 07:50:09 07:52:16 14° 295° (WNW) 07:54:22 145.730 - 145.750
Oscar 11 13 Dec 07:59:21 08:02:17 17° 92° (E) 08:05:13 .
XW-2F 13 Dec 08:04:53 08:05:48 11° 297° (WNW) 08:06:44 145.980 - 146.000
CUTE 1.7 + AOD 2 13 Dec 08:09:47 08:13:44 36° 289° (WNW) 08:17:40 437.475
AO-73 13 Dec 08:10:45 08:14:44 35° 97° (E) 08:18:48 145.935
AAUSAT CUBESAT 2 13 Dec 08:14:16 08:18:27 67° 102° (ESE) 08:22:33 437.432
FO-29 13 Dec 08:23:03 08:30:43 69° 259° (W) 08:38:35 435.910
NO-84 13 Dec 08:28:08 08:31:04 36° 329° (NNW) 08:34:13 435.350 FM
CUBEBUG 2 13 Dec 08:39:57 08:43:38 30° 290° (WNW) 08:47:23 437.445
UWE-3 13 Dec 08:42:52 08:46:59 48° 287° (WNW) 08:51:13 435.000/436.395/437.385
XW-2A 13 Dec 08:46:46 08:50:00 39° 287° (WNW) 08:53:13 145.665 - 145.685
PRISM 13 Dec 08:56:36 08:58:55 15° 63° (ENE) 09:01:14 437.425
HO-68 13 Dec 09:00:24 09:06:37 33° 299° (WNW) 09:12:48 435.675
O/OREOS (USA 219) 13 Dec 09:10:17 09:14:53 88° 108° (ESE) 09:19:28 437.305
ZACube-1 13 Dec 09:11:47 09:15:54 44° 288° (WNW) 09:20:06 437.345
TIGRISAT 13 Dec 09:17:25 09:21:42 71° 75° (ENE) 09:25:57 435.000
UNISAT 6 13 Dec 09:20:11 09:24:31 84° 76° (ENE) 09:28:48 437.425
SEEDS 13 Dec 09:28:50 09:29:15 10° 300° (WNW) 09:29:39 437.485
DELFI C3 13 Dec 09:32:09 09:35:47 33° 97° (E) 09:39:21 145.870
Oscar 11 13 Dec 09:34:29 09:38:37 44° 288° (WNW) 09:42:45 .
AO-73 13 Dec 09:47:24 09:50:47 23° 293° (WNW) 09:54:12 145.935
AAUSAT CUBESAT 2 13 Dec 09:51:41 09:53:19 12° 298° (WNW) 09:54:56 437.432
Max Valier Satellite 13 Dec 10:02:45 10:06:25 53° 100° (E) 10:10:04 145.860
NO-84 13 Dec 10:07:25 10:09:10 13° 350° (N) 10:10:59 435.350 FM
FO-29 13 Dec 10:13:40 10:17:00 13° 277° (W) 10:20:24 435.910
EO-79 13 Dec 10:20:10 10:22:26 14° 63° (ENE) 10:24:42 145.935-145.965
PRISM 13 Dec 10:29:40 10:33:44 54° 260° (W) 10:37:50 437.425
EO-88 13 Dec 10:34:39 10:38:20 88° 286° (WNW) 10:41:59 145.990 - 145.960
POLYITAN 1 13 Dec 10:41:27 10:44:47 23° 67° (ENE) 10:48:08 437.675
O/OREOS (USA 219) 13 Dec 10:52:58 10:54:57 13° 311° (NW) 10:56:56 437.305
AIST 2D 13 Dec 10:57:24 11:00:54 73° 259° (WSW) 11:04:26 435.315
TIGRISAT 13 Dec 10:58:12 10:58:51 10° 271° (W) 10:59:30 435.000
QB50P2 13 Dec 11:06:11 11:10:13 48° 72° (ENE) 11:14:16 145.880/145.840
DELFI C3 13 Dec 11:07:26 11:10:17 19° 294° (WNW) 11:13:06 145.870
LO-87 13 Dec 11:10:40 11:13:46 28° 97° (E) 11:16:52 145.935 - 145.965
nSIGHT-1 13 Dec 11:13:24 11:15:00 13° 131° (SE) 11:16:37 .
DUCHIFAT 1 13 Dec 11:14:05 11:17:58 39° 71° (ENE) 11:21:52 145.980
ESTCUBE 1 13 Dec 11:26:22 11:30:34 35° 97° (E) 11:34:42 437.505/2401.250
Oscar 19 13 Dec 11:27:13 11:28:58 12° 56° (ENE) 11:30:42 437.125/150
Max Valier Satellite 13 Dec 11:38:24 11:39:46 12° 296° (WNW) 11:41:08 145.860
NANOSAT C BR1 13 Dec 11:39:16 11:43:26 89° 71° (ENE) 11:47:38 145.865
NO-84 13 Dec 11:45:42 11:47:40 14° 12° (NNE) 11:49:42 435.350 FM
ISS 13 Dec 11:48:25 11:51:03 22° 135° (SE) 11:53:41 437.550
EO-79 13 Dec 11:53:38 11:57:44 55° 260° (W) 12:01:52 145.935-145.965
Gurwin Techsat 1B 13 Dec 11:54:57 11:58:07 16° 59° (ENE) 12:01:19 435.225
BUGSAT 1 13 Dec 12:01:11 12:04:45 31° 70° (ENE) 12:08:20 437.445
AO-91 13 Dec 12:06:51 12:10:39 23° 68° (ENE) 12:14:11 145.960
AO-7 13 Dec 12:07:07 12:07:38 10° 37° (NE) 12:08:09 .
POLYITAN 1 13 Dec 12:16:42 12:20:25 31° 264° (W) 12:24:09 437.675
SPROUT 13 Dec 12:23:20 12:27:11 33° 97° (E) 12:31:02 437.525
QB50P2 13 Dec 12:43:49 12:46:14 15° 268° (W) 12:48:41 145.880/145.840
LO-87 13 Dec 12:44:31 12:46:59 18° 293° (WNW) 12:49:26 145.935 - 145.965
nSIGHT-1 13 Dec 12:47:35 12:50:48 78° 328° (NNW) 12:54:02 .
DUCHIFAT 1 13 Dec 12:50:57 12:53:47 18° 267° (W) 12:56:37 145.980
Oscar 19 13 Dec 13:02:18 13:07:25 82° 75° (ENE) 13:12:36 437.125/150
ESTCUBE 1 13 Dec 13:03:30 13:07:10 24° 294° (WNW) 13:10:49 437.505/2401.250
VELOX 1 13 Dec 13:06:35 13:10:57 59° 101° (E) 13:15:17 145.980
M-CUBED/EXP-1 PRIME 13 Dec 13:17:15 13:18:57 12° 53° (NE) 13:20:41 437.505
NO-84 13 Dec 13:22:17 13:25:46 36° 31° (NNE) 13:29:29 435.350 FM
ISS 13 Dec 13:24:07 13:27:20 50° 332° (NNW) 13:30:34 437.550
Gurwin Techsat 1B 13 Dec 13:32:07 13:37:26 75° 257° (WSW) 13:42:47 435.225
RS-15 13 Dec 13:36:58 13:46:33 28° 101° (ESE) 13:56:02 29.354- 29.394
BUGSAT 1 13 Dec 13:37:02 13:40:08 21° 266° (W) 13:43:16 437.445
AO-91 13 Dec 13:42:10 13:46:54 41° 261° (W) 13:51:13 145.960
AO-7 13 Dec 13:50:33 13:58:07 41° 59° (ENE) 14:05:43 .
UKube-1 13 Dec 13:54:55 13:58:31 25° 96° (E) 14:02:03 .
YUBILEINY 13 Dec 13:55:11 14:03:38 47° 73° (ENE) 14:11:58 435.215
SPROUT 13 Dec 13:59:35 14:02:53 22° 294° (WNW) 14:06:11 437.525
DX 1 13 Dec 14:07:00 14:11:18 56° 101° (E) 14:15:33 434.975-435.025
ITAMSAT 1 13 Dec 14:12:30 14:16:35 24° 63° (ENE) 14:20:39 435.822/435.867
50 SAT 13 Dec 14:23:00 14:26:09 72° 284° (WNW) 14:29:16 437.505
nSIGHT-1 13 Dec 14:24:50 14:27:25 21° 347° (NNW) 14:29:59 .
VELOX 1 13 Dec 14:44:25 14:46:54 15° 298° (WNW) 14:49:23 145.980
Oscar 19 13 Dec 14:45:19 14:47:22 12° 272° (W) 14:49:25 437.125/150
M-CUBED/EXP-1 PRIME 13 Dec 14:48:14 14:52:32 89° 237° (WSW) 14:57:07 437.505
MOZHAYETS 4 13 Dec 14:50:10 14:53:52 23° 94° (E) 14:57:33
BEESAT 13 Dec 14:58:50 15:02:15 19° 93° (E) 15:05:39 436.000
NO-84 13 Dec 14:59:28 15:03:05 37° 227° (SW) 15:06:53 435.350 FM
ISS 13 Dec 15:01:54 15:04:22 19° 352° (N) 15:06:51 437.550
SO-50 13 Dec 15:07:29 15:10:31 18° 111° (ESE) 15:13:36 436.795
ITUPSAT 1 13 Dec 15:25:30 15:29:51 34° 97° (E) 15:34:11 437.325
UKube-1 13 Dec 15:30:44 15:34:30 30° 292° (WNW) 15:38:15 .
AO-7 13 Dec 15:42:46 15:50:42 49° 259° (W) 15:58:45 .
DX 1 13 Dec 15:44:30 15:47:01 15° 298° (WNW) 15:49:32 434.975-435.025
RS-15 13 Dec 15:45:13 15:57:36 87° 302° (WNW) 16:09:54 29.354- 29.394
ITAMSAT 1 13 Dec 15:50:42 15:55:43 47° 260° (W) 16:00:46 435.822/435.867
YUBILEINY 13 Dec 15:52:16 16:00:17 41° 274° (W) 16:08:14 435.215
DOVE 4 13 Dec 15:52:49 15:57:41 39° 70° (ENE) 16:02:26 437.250
nSIGHT-1 13 Dec 16:02:05 16:04:26 18° 7° (N) 16:06:46 .
CUBESAT XI-V 13 Dec 16:09:20 16:13:43 37° 97° (E) 16:18:04 437.345
